Vorticity
5 4 4 4 5 6 7 8 8 9 13 18 22 20 16 13 12 15 17 12 7 8 10 12 11 9 9 9 9 9 9 10 11 12 15 15 12 10 14 21 24 26
5 5 4 4 5 6 7 7 7 8 12 18 22 21 16 13 11 13 17 14 8 7 9 11 11 10 9 9 9 8 8 10 11 11 12 14 15 12 9 15 23 25
5 5 4 4 5 6 7 7 6 8 12 17 21 22 18 13 11 12 17 16 10 7 9 11 12 10 9 9 9 9 8 8 9 11 11 11 13 15 10 9 17 25
4 5 5 5 5 6 7 7 6 7 11 16 21 23 20 14 10 10 15 18 12 7 8 11 12 11 9 8 9 9 8 8 9 10 10 10 11 13 13 9 10 19
4 4 5 5 5 6 7 6 6 6 10 15 21 24 21 15 10 8 12 18 15 9 8 10 12 11 10 9 9 9 9 8 9 10 9 9 10 11 12 11 8 10
4 5 5 5 5 7 8 6 6 6 8 14 21 24 22 16 10 8 9 16 17 11 8 10 12 12 10 9 9 8 9 9 8 10 10 8 9 10 10 11 9 8
4 5 5 5 6 7 8 7 6 6 7 13 19 23 25 19 10 7 8 13 18 14 8 9 12 12 11 9 9 8 8 9 9 10 11 9 9 9 8 10 10 8
5 5 5 6 6 7 8 8 7 6 6 11 18 22 26 21 10 7 7 10 17 17 10 8 11 13 11 9 9 8 8 9 10 10 11 9 9 10 8 8 10 9
5 6 5 6 7 8 9 8 8 8 6 9 16 21 25 21 11 7 7 8 15 18 13 9 10 12 12 10 8 8 9 9 10 10 11 10 8 10 9 7 8 10
6 6 6 7 8 9 10 9 8 8 6 7 14 20 25 21 12 7 7 7 11 17 16 10 10 12 12 11 9 8 9 9 10 11 12 11 9 8 10 9 6 7
6 5 6 7 9 9 10 10 8 8 8 7 10 18 24 22 13 6 6 7 9 15 17 12 9 12 12 11 10 8 8 9 9 11 13 14 11 8 9 10 7 5
5 6 6 8 9 9 11 11 8 8 9 8 8 16 24 23 13 6 6 8 9 12 18 15 10 11 12 11 10 9 8 8 8 10 14 16 14 9 8 9 8 5
4 5 7 8 9 9 11 12 8 8 9 9 9 13 21 23 15 5 4 9 9 10 16 17 12 11 12 11 11 10 8 8 9 10 13 17 16 11 8 9 9 7
4 6 7 9 9 9 12 11 9 9 9 9 10 12 18 23 16 4 2 8 10 9 13 18 15 11 12 11 10 10 9 8 9 10 13 16 18 14 10 10 10 7
7 10 11 12 13 12 13 12 9 9 9 9 11 11 16 23 17 4 -0 7 11 9 10 18 18 12 10 11 10 10 10 9 8 10 12 15 17 16 13 12 11 8
13 14 14 15 16 14 12 12 10 10 10 10 11 12 16 21 17 4 -2 7 13 9 9 17 19 12 9 11 10 10 10 10 9 10 12 15 17 16 15 15 14 11
17 16 15 16 17 15 12 11 10 10 11 10 11 13 16 18 13 4 0 8 15 10 7 17 20 13 9 10 10 11 11 10 9 10 11 14 17 16 14 17 19 15
23 20 19 20 19 16 14 12 12 12 12 12 12 15 17 15 10 4 3 9 16 11 7 16 21 14 9 11 10 10 12 11 10 10 10 12 15 15 14 18 22 19
30 25 22 22 22 19 16 15 14 12 12 13 13 14 18 16 8 6 9 13 17 12 6 15 22 14 8 11 11 10 12 12 10 9 9 10 13 14 15 19 23 21
28 26 24 22 21 19 16 16 15 11 10 13 14 14 17 15 8 9 14 17 17 11 6 14 20 14 9 11 11 10 12 12 11 9 9 10 12 13 17 20 22 21
27 27 25 22 21 18 15 16 16 12 9 12 14 14 15 13 10 11 11 13 17 12 6 13 19 14 10 10 10 11 12 12 11 9 9 10 10 12 17 21 20 19
31 29 24 21 21 19 14 13 16 16 12 10 9 8 9 11 12 12 9 10 16 12 6 12 18 15 11 10 10 11 12 12 11 10 9 10 9 12 16 18 17 18
26 26 22 18 20 20 14 12 18 21 16 10 8 7 7 7 10 16 16 13 14 11 6 11 17 15 12 11 10 11 12 12 12 10 9 10 10 12 14 14 14 16
32 30 25 18 15 18 18 14 18 24 19 12 10 9 8 6 5 13 21 19 15 12 8 11 17 15 12 10 10 11 12 12 12 10 9 9 11 12 12 11 13 15
35 33 34 29 17 16 22 18 16 22 21 15 11 7 7 10 7 10 19 20 17 13 9 11 16 15 11 10 9 10 12 13 13 10 9 9 11 11 11 10 13 17
16 19 32 38 26 20 26 21 13 15 16 20 21 10 2 9 12 13 19 18 15 14 9 11 17 16 11 9 9 10 12 13 13 10 8 10 10 10 10 10 14 18
Height
5507 5502 5497 5492 5487 5483 5477 5472 5466 5461 5455 5449 5445 5441 5437 5434 5431 5428 5425 5422 5419 5416 5413 5411 5409 5406 5404 5401 5399 5397 5395 5393 5391 5389 5387 5385 5383 5382 5380 5379 5377 5376
5500 5495 5490 5485 5481 5476 5471 5466 5460 5454 5449 5443 5439 5434 5431 5428 5425 5422 5419 5416 5413 5410 5407 5405 5403 5400 5398 5396 5393 5391 5389 5387 5386 5385 5383 5381 5379 5378 5376 5375 5373 5372
5492 5487 5483 5478 5474 5469 5465 5460 5454 5448 5443 5437 5432 5428 5425 5421 5418 5416 5413 5410 5407 5404 5401 5399 5397 5395 5392 5390 5388 5386 5384 5382 5380 5380 5378 5376 5375 5373 5372 5371 5369 5367
5485 5480 5475 5471 5467 5463 5458 5453 5448 5442 5437 5431 5426 5422 5418 5415 5412 5409 5407 5404 5401 5398 5395 5393 5391 5388 5386 5384 5382 5380 5378 5376 5374 5374 5373 5371 5370 5369 5367 5366 5365 5363
5477 5472 5468 5464 5460 5456 5451 5447 5441 5436 5430 5425 5420 5415 5411 5408 5406 5403 5400 5397 5394 5392 5389 5387 5385 5382 5380 5378 5377 5375 5372 5371 5369 5368 5367 5366 5365 5364 5363 5362 5361 5359
5469 5465 5460 5456 5453 5448 5444 5439 5435 5430 5424 5418 5413 5409 5405 5402 5399 5396 5393 5390 5388 5385 5383 5381 5378 5376 5374 5372 5371 5369 5367 5365 5363 5362 5361 5360 5359 5359 5358 5357 5356 5355
5461 5457 5452 5448 5445 5441 5437 5432 5428 5423 5418 5412 5407 5402 5398 5395 5392 5389 5386 5384 5381 5378 5376 5374 5372 5370 5368 5366 5364 5363 5361 5359 5357 5356 5355 5354 5353 5353 5353 5352 5352 5350
5453 5449 5444 5440 5436 5433 5429 5425 5420 5416 5411 5406 5400 5395 5391 5388 5385 5382 5379 5377 5374 5371 5369 5367 5365 5364 5362 5360 5358 5356 5355 5353 5351 5350 5349 5348 5348 5347 5347 5347 5347 5346
5444 5440 5435 5432 5428 5424 5421 5417 5413 5408 5404 5398 5393 5388 5384 5380 5378 5375 5372 5370 5367 5364 5362 5360 5359 5357 5355 5353 5351 5350 5349 5347 5346 5344 5343 5342 5342 5342 5341 5341 5342 5341
5435 5430 5426 5423 5419 5416 5412 5408 5404 5400 5396 5391 5386 5380 5376 5373 5370 5368 5365 5362 5360 5357 5355 5353 5352 5350 5348 5347 5345 5343 5342 5341 5340 5338 5337 5336 5336 5336 5336 5336 5336 5336
5425 5420 5416 5413 5410 5407 5403 5399 5395 5392 5388 5383 5378 5373 5369 5365 5362 5360 5358 5355 5353 5350 5348 5346 5345 5343 5342 5340 5338 5337 5336 5335 5333 5332 5331 5331 5330 5329 5330 5330 5330 5330
5414 5410 5406 5403 5400 5397 5394 5390 5386 5382 5379 5375 5370 5366 5361 5358 5355 5352 5350 5348 5345 5343 5341 5339 5337 5336 5335 5333 5332 5330 5329 5328 5327 5326 5325 5325 5324 5323 5323 5324 5325 5325
5402 5398 5395 5392 5389 5386 5383 5380 5376 5373 5369 5365 5361 5357 5353 5350 5347 5345 5342 5340 5338 5336 5334 5332 5330 5329 5328 5326 5325 5323 5322 5321 5320 5319 5319 5319 5318 5317 5317 5318 5319 5319
5390 5386 5383 5380 5377 5374 5371 5368 5365 5362 5359 5356 5352 5348 5345 5342 5339 5337 5335 5332 5330 5328 5326 5325 5323 5322 5321 5319 5318 5316 5316 5315 5314 5313 5313 5312 5312 5311 5310 5311 5313 5313
5377 5373 5370 5368 5365 5362 5359 5357 5354 5351 5349 5346 5343 5339 5336 5333 5331 5329 5327 5325 5323 5321 5319 5317 5316 5315 5314 5312 5311 5310 5309 5308 5308 5307 5306 5306 5305 5305 5304 5305 5306 5307
5362 5359 5356 5355 5352 5349 5347 5344 5342 5340 5338 5335 5332 5329 5326 5324 5322 5321 5319 5317 5315 5313 5312 5310 5309 5307 5306 5305 5304 5303 5303 5302 5301 5301 5300 5299 5299 5298 5298 5298 5299 5301
5348 5344 5343 5342 5340 5337 5334 5332 5331 5329 5327 5324 5322 5319 5317 5315 5313 5312 5310 5308 5307 5306 5304 5303 5301 5300 5299 5298 5297 5297 5296 5296 5295 5294 5293 5293 5292 5292 5291 5291 5292 5294
5334 5331 5329 5328 5327 5325 5323 5321 5319 5317 5315 5313 5312 5309 5307 5306 5305 5303 5302 5300 5299 5298 5297 5296 5294 5293 5292 5291 5290 5290 5290 5290 5289 5288 5287 5286 5286 5285 5284 5284 5286 5287
5320 5318 5316 5315 5314 5313 5312 5310 5308 5306 5304 5303 5302 5300 5298 5297 5296 5295 5293 5292 5291 5291 5290 5288 5287 5286 5285 5284 5284 5284 5283 5283 5283 5282 5281 5280 5279 5279 5278 5278 5279 5280
5306 5304 5302 5302 5302 5301 5300 5299 5297 5295 5294 5293 5292 5291 5290 5289 5288 5286 5285 5284 5283 5283 5282 5281 5280 5278 5278 5278 5277 5277 5277 5277 5277 5276 5275 5274 5273 5272 5272 5272 5272 5273
5291 5290 5289 5289 5289 5288 5288 5287 5285 5284 5283 5283 5283 5282 5281 5280 5279 5278 5277 5276 5276 5276 5275 5274 5272 5271 5271 5271 5271 5271 5270 5270 5271 5270 5269 5268 5266 5266 5266 5266 5265 5265
5278 5277 5276 5276 5276 5276 5276 5275 5274 5273 5273 5274 5274 5273 5273 5272 5271 5270 5269 5268 5268 5268 5268 5267 5266 5265 5265 5265 5264 5264 5264 5264 5264 5264 5263 5262 5261 5260 5260 5259 5258 5258
5265 5265 5264 5264 5264 5264 5264 5263 5263 5263 5263 5264 5264 5264 5263 5263 5262 5262 5261 5261 5261 5261 5261 5260 5259 5258 5258 5258 5258 5258 5258 5258 5258 5258 5257 5256 5255 5254 5253 5252 5251 5251
5254 5253 5253 5253 5253 5253 5253 5253 5252 5252 5253 5254 5255 5255 5254 5254 5254 5254 5253 5253 5253 5254 5254 5254 5252 5252 5252 5252 5252 5252 5252 5252 5252 5251 5251 5250 5249 5248 5247 5246 5245 5245
5244 5243 5242 5242 5243 5243 5243 5243 5243 5243 5244 5244 5245 5246 5246 5246 5246 5245 5245 5245 5246 5247 5247 5247 5246 5245 5246 5246 5246 5245 5246 5246 5246 5246 5245 5245 5244 5243 5242 5240 5239 5239
5236 5234 5233 5232 5232 5233 5233 5233 5234 5234 5235 5235 5236 5237 5237 5237 5237 5237 5237 5237 5238 5239 5240 5240 5239 5239 5239 5240 5239 5239 5239 5240 5240 5240 5240 5239 5238 5237 5236 5235 5234 5234